User: anonymous   Login
Location: Unspecified
(0.0000°N, 0.0000°E)
Time: 01:05:59
(UTC+00:00)
Language:

FALCONSAT 3 - Orbit

View from above orbital plane
View from above orbital plane
View from above satellite
View from above satellite

Ground track
Ground track

The orbit data is extracted from the following two-line orbital elements,

1 30776U 07006E   21023.48060038  .00003073  00000-0  77973-4 0  9993
2 30776  35.4352 310.9666 0002425 345.9097  14.1563 15.39370772770747
Epoch (UTC): 23 January 2021 11:32:03
Eccentricity: 0.0002425
inclination: 35.4352°
perigee height: 446 km
apogee height: 449 km
right ascension of ascending node: 310.9666°
argument of perigee: 345.9097°
revolutions per day: 15.39370772
mean anomaly at epoch: 14.1563°
orbit number at epoch: 77074

The dashed part of the orbit path shows where the satellite is in the earth's shadow,  

DLR